Home   Weather   Madaba   Past weeks

Flag for Jordan Past Weather in Madaba, Jordan — Yesterday and Last 2 Weeks

Now
88 °F

Clear.


Feels Like: 88 °F
Forecast: 68 / 85 °F
Wind: 12 mph from West

Location: Queen Alia Airport

Current Time: Aug 31, 2016 at 5:33:33 PM

Latest Report: Aug 31, 2016 at 5:00 PM


Visibility: 4 mi

Pressure: 29.92 "Hg (27.38 "Hg at 788m altitude)

Humidity: 40%

Dew Point: 61 °F

Location of MadabaLocation

Past Weather in Madaba — Graph

°F

Madaba Temperature Yesterday

Maximum temperature yesterday: 88 °F (at 2:00 PM)
Minimum temperature yesterday: 70 °F (at 3:00 AM)
Average temperature yesterday: 79 °F

High & Low Weather Summary for the Past Weeks

 TemperatureHumidityPressure
High99 °F (Aug 20, 2:00 PM)94% (Aug 30, 4:00 AM)30.04 "Hg (Aug 30, 4:00 AM)
Low63 °F (Aug 17, 6:00 AM)19% (Aug 20, 2:00 PM)29.80 "Hg (Aug 19, 4:00 AM)
Average80 °F53%29.92 "Hg
* Reported Aug 16 4:00 PM — Aug 31 4:00 PM, Madaba, Weather by CustomWeather, © 2016

Note: Actual official high and low records may vary slightly from our data, if they occured in-between our weather recording intervals... More about our weather records

Advertising

Madaba Weather History for the Previous 24 Hours

Scroll right to see more
 ConditionsComfort  
Time TempWeatherWind HumidityBarometerVisibility
4:00 PM
Wed, Aug 31
90 °FClear.14 mph38%29.92 "Hg4 mi
3:00 PM90 °FClear.14 mph38%29.92 "Hg4 mi
2:00 PM86 °FClear.16 mph43%29.95 "Hg4 mi
1:00 PM84 °FClear.16 mph48%29.95 "Hg4 mi
12:00 PM81 °FClear.14 mph54%29.98 "Hg4 mi
11:00 AM79 °FClear.9 mph61%29.98 "Hg4 mi
10:00 AM75 °FClear.14 mph69%29.98 "Hg4 mi
9:00 AM73 °FClear.12 mph74%29.98 "Hg4 mi
8:00 AM72 °FClear.12 mph88%29.98 "Hg4 mi
7:00 AM70 °FClear.12 mph88%29.95 "Hg4 mi
6:00 AM70 °FClear.12 mph94%29.95 "Hg4 mi
5:00 AM70 °FClear.12 mph94%29.95 "Hg4 mi
2:00 AM72 °FClear.9 mph83%29.95 "Hg4 mi
1:00 AM72 °FClear.9 mph83%29.95 "Hg4 mi
12:00 AM73 °FClear.9 mph78%29.95 "Hg4 mi
11:00 PM
Tue, Aug 30
73 °FClear.9 mph78%29.95 "Hg4 mi
10:00 PM75 °FClear.12 mph74%29.95 "Hg4 mi
9:00 PM77 °FClear.12 mph69%29.95 "Hg4 mi
7:00 PM82 °FClear.14 mph62%29.89 "Hg4 mi
6:00 PM88 °FClear.14 mph49%29.89 "Hg4 mi
5:00 PM88 °FClear.14 mph49%29.92 "Hg4 mi
Weather by CustomWeather, © 2016

See weather overviewHow to use our weather pages